User: anonymous   Login
Location: Santa Barbara
(34.4500°N, 119.7700°W)
Time: 22:56:24
(UTC-07:00)
Language:

Cosmos 1626 Rocket - Orbit

View from above orbital plane
View from above orbital plane
View from above satellite
View from above satellite

Ground track
Ground track

The orbit data is extracted from the following two-line orbital elements,

1 15495U 85009B   16122.19191981  .00000162  00000-0  16686-4 0  9997
2 15495  82.5269 213.3447 0018757 247.5527 112.3702 14.83699456688870
Epoch (UTC): 01 May 2016 04:36:21
Eccentricity: 0.0018757
inclination: 82.5269°
perigee height: 604 km
apogee height: 631 km
right ascension of ascending node: 213.3447°
argument of perigee: 247.5527°
revolutions per day: 14.83699456
mean anomaly at epoch: 112.3702°
orbit number at epoch: 68887

The dashed part of the orbit path shows where the satellite is in the earth's shadow,  

DLR